Terminal Aerodrome Forecast
Issued by NWS

Home | Current Version | Previous Version | Text Only | Print | Product List | Glossary On
Versions: 1 2 3 4 5 6 7 8 9 10 11 12 13
725
FTUS44 KMAF 250006 AAA
TAFINK
TAF AMD
KINK 250006Z 2500/2524 16007KT P6SM BKN250
     FM250300 14013KT P6SM BKN150
     FM250600 04020G30KT P6SM BKN100
     FM251100 01020G30KT P6SM BKN015
     FM251700 02016G26KT P6SM BKN030=

USA.gov is the U.S. government's official web portal to all federal, state and local government web resources and services.